Oak Harbor, WA

8:02 PM PST on December 08, 2016 (GMT -0800)
Whidbey Island Naval Air Station

Weather History for KNUW - August, 2012

Change the Weather History Date:

Tuesday, August 28, 2012

  Actual Average Record
Temperature  
Mean Temperature 56 °F -  
Max Temperature 64 °F 64 °F 81 °F (2005)
Min Temperature 50 °F 49 °F 46 °F (2006)
Degree Days  
Heating Degree Days 8    
Growing Degree Days 6 (Base 50)    
Moisture  
Dew Point 50 °F    
Average Humidity 80    
Maximum Humidity 89    
Minimum Humidity 65    
Precipitation  
Precipitation 0.00 in - - ()
Sea Level Pressure  
Sea Level Pressure 30.05 in    
Wind  
Wind Speed 3 mph (SW)    
Max Wind Speed 14 mph    
Max Gust Speed -    
Visibility 10 miles    
Events Rain    
Averages and records for this station are not official NWS values.
T = Trace of Precipitation, MM = Missing Value Source: NWS Daily Summary

Daily Weather History Graph

Daily Weather History Graph

Search for Another Location

Airport or City:

Trip Planner

Search our weather history database for the weather conditions in past years. The results will help you decide how hot, cold, wet, or windy it might be!

Date:

Astronomy

Aug. 28, 2012 Rise Set
Actual Time 6:23 AM PDT 7:58 PM PDT
Civil Twilight 5:50 AM PDT 8:31 PM PDT
Nautical Twilight 5:10 AM PDT 9:11 PM PDT
Astronomical Twilight 4:26 AM PDT 9:54 PM PDT
Moon 6:12 PM PDT (8/28) 3:08 AM PDT (8/28)
Length of Visible Light 14h 40m
Length of Day
13h 35m
Waxing Gibbous, 91% of the Moon is Illuminated
Aug 28
Waxing Gibbous
Aug 31
Full
Sep 8
Last Quarter
Sep 15
New
Sep 22
First Quarter

Hourly Weather History & Observations

Time (PDT) Temp. Dew Point Humidity Pressure Visibility Wind Dir Wind Speed Gust Speed Precip Events Conditions
12:56 AM 53.1 °F 48.0 °F 83% 30.05 in 10.0 mi Calm Calm - N/A   Scattered Clouds
1:56 AM 51.1 °F 48.0 °F 89% 30.05 in 10.0 mi Calm Calm - N/A   Mostly Cloudy
2:56 AM 50.0 °F 46.9 °F 89% 30.05 in 10.0 mi Calm Calm - N/A   Mostly Cloudy
3:56 AM 51.1 °F 48.0 °F 89% 30.05 in 10.0 mi SE 4.6 mph - N/A   Mostly Cloudy
4:56 AM 52.0 °F 48.9 °F 89% 30.04 in 10.0 mi SE 3.5 mph - N/A   Mostly Cloudy
5:56 AM 54.0 °F 50.0 °F 86% 30.03 in 10.0 mi Calm Calm - N/A   Mostly Cloudy
6:56 AM 54.0 °F 50.0 °F 86% 30.03 in 10.0 mi ESE 3.5 mph - N/A   Overcast
7:56 AM 55.9 °F 52.0 °F 87% 30.04 in 10.0 mi SE 4.6 mph - N/A   Overcast
8:56 AM 60.1 °F 53.1 °F 78% 30.05 in 10.0 mi SE 8.1 mph - N/A   Overcast
9:56 AM 63.0 °F 51.1 °F 65% 30.05 in 10.0 mi South 5.8 mph - N/A   Mostly Cloudy
10:56 AM 62.1 °F 51.1 °F 67% 30.06 in 10.0 mi WSW 13.8 mph - N/A   Overcast
11:56 AM 61.0 °F 51.1 °F 70% 30.06 in 10.0 mi WSW 13.8 mph - N/A   Mostly Cloudy
12:56 PM 62.1 °F 51.1 °F 67% 30.05 in 10.0 mi West 6.9 mph - N/A   Mostly Cloudy
1:56 PM 61.0 °F 50.0 °F 67% 30.05 in 10.0 mi West 6.9 mph - N/A   Mostly Cloudy
2:56 PM 60.1 °F 51.1 °F 72% 30.06 in 10.0 mi WNW 5.8 mph - N/A   Mostly Cloudy
3:56 PM 62.1 °F 50.0 °F 65% 30.06 in 10.0 mi West 4.6 mph - N/A   Overcast
4:56 PM 60.1 °F 51.1 °F 72% 30.06 in 10.0 mi NW 3.5 mph - N/A   Overcast
5:56 PM 57.9 °F 50.0 °F 75% 30.06 in 10.0 mi WSW 4.6 mph - N/A   Overcast
6:56 PM 55.0 °F 50.0 °F 83% 30.05 in 10.0 mi Variable 5.8 mph - 0.00 in Rain Light Rain
7:56 PM 55.0 °F 51.1 °F 86% 30.06 in 10.0 mi SW 6.9 mph - 0.00 in Rain Light Rain
8:32 PM 53.6 °F 50.0 °F 88% 30.05 in 10.0 mi WNW 3.5 mph - 0.00 in   Mostly Cloudy
8:56 PM 54.0 °F 50.0 °F 86% 30.06 in 10.0 mi Calm Calm - 0.00 in   Overcast
9:56 PM 55.0 °F 50.0 °F 83% 30.07 in 10.0 mi Calm Calm - N/A   Mostly Cloudy
10:56 PM 55.0 °F 51.1 °F 86% 30.07 in 10.0 mi SW 3.5 mph - N/A   Mostly Cloudy
11:56 PM 55.9 °F 51.1 °F 84% 30.08 in 10.0 mi Calm Calm - N/A   Overcast